Location: Gündelbach
(48.9934°N, 8.9415°E)
Time: 04:31:33
(UTC+00:00)

Cosmos 1763 Rocket - Visible Passes

Search period start: 06 June 2026 00:00
Search period end: 16 June 2026 00:00
Orbit: 728 x 773 km, 74.0° (Epoch: 5 June)

Date Brightness Start Highest point End Pass type
(mag) Time Alt. Az. Time Alt. Az. Time Alt. Az.
6 Jun 6.4 01:13:28 10° N 01:16:42 16° NE 01:19:54 10° E visible
7 Jun 6.8 00:32:41 10° NNE 00:33:52 11° NE 00:35:03 10° NE visible
7 Jun 4.6 02:11:58 10° NNW 02:16:55 48° ENE 02:21:47 10° SE visible
8 Jun 5.5 01:30:01 10° N 01:34:27 29° NE 01:38:50 10° ESE visible
9 Jun 6.2 00:48:15 10° N 00:51:49 19° NE 00:55:20 10° E visible
9 Jun 3.4 02:29:06 10° NNW 02:34:12 83° WSW 02:39:14 10° SSE visible
10 Jun 6.4 00:07:02 10° NNE 00:09:00 12° NE 00:10:59 10° ENE visible
10 Jun 4.2 01:46:54 10° NNW 01:51:55 56° ENE 01:56:52 10° SE visible
11 Jun 5.1 01:04:52 10° N 01:09:29 33° NE 01:14:02 10° ESE visible
12 Jun 5.9 00:23:03 10° N 00:26:53 21° NE 00:30:41 10° E visible
12 Jun 3.4 02:04:04 10° NNW 02:09:08 71° WSW 02:14:08 10° SSE visible
12 Jun 6.2 23:41:36 10° NNE 23:44:08 14° NE 23:46:40 10° ENE visible
13 Jun 3.8 01:21:49 10° NNW 01:26:53 66° ENE 01:31:53 10° SSE visible
14 Jun 4.8 00:39:45 10° N 00:44:30 38° ENE 00:49:11 10° SE visible
14 Jun 4.2 02:21:37 10° NW 02:26:06 33° WSW 02:30:34 10° SSW visible
14 Jun 5.6 23:57:51 10° N 00:01:57 24° NE 00:05:59 10° ESE visible
15 Jun 3.5 01:39:03 10° NNW 01:44:03 60° WSW 01:48:59 10° S visible
15 Jun 6.0 23:16:16 10° N 23:19:14 15° NE 23:22:12 10° E visible
